星链-6322 (STARLINK-6322 )

导读

STARLINK-6322是美国SpaceX星链星座的成员,于2023年7月16日发射,属于大规模低轨宽带通信卫星网络。星链星座旨在为全球提供高速宽带互联网接入,该卫星具备自主避撞能力,搭载霍尔推进器,服役寿命约5-7年,退役后将主动离轨再入大气层烧毁,助力星链实现全球无缝覆盖的网络服务。

Basic Information
目录编号:
57337
目录名称:
STARLINK-6322
国际标识:
2023-099K
轨道中心:
EARTH
卫星名称:
星链-6322
卫星全名:
星链-6322 (STARLINK-6322 )
卫星状态:
在轨 (已飞行1154 天)
发射日期:
2023-07-16 UTC
国别 :
美国 (US)
星等 :
--
This satellite is enrolled in the Space Conjunction Data Service (SCDS) and the current flight risk assessment level is: High Risk
Orbit Information
数据来源 国际轨道数据 AOE轨道数据
星历时间 2026-09-12T10:25:50+0800
15小时前
查看轨道信息
2026-09-06T07:00:00+0800
6天前
查看轨道信息
半长轴 6861.205km 6861.184km
偏心率 0.0001069 0.0001483
轨道倾角 43.002° 43.003°
近地点辐角 269.716° 255.963°
升交点赤经 279.819° 314.514°
平近点角 90.357° 122.746°
近地点 482.334km 482.029km
远地点 483.802km 484.065km
周期 94.267分钟 94.267分钟
每日圈数 15.275739 15.27581
Detailed Information
固有亮度:
5
最大亮度:
2.5
卫星平台:
Starlink v1.5
覆盖范围:
全球
运营商:
太空探索技术公司
运营商所在国:
美国
制造商(研发单位):
太空探索技术公司
制造商所在国:
美国
使用方式:
暂无
Satellite Introduction
星链(Starlink)计划是由太空探索技术公司(SpaceX)提出的一个巨型低轨卫星互联网星座项目,计划在2019年至2024年间在太空搭建由约1.2万颗卫星组成的“星链”网络,其中1584颗将部署在地球上空550千米处的近地轨道,并从2020年开始工作。该卫星仍在工作。
2D Orbit Map
3D Orbit Map
Orbit Altitude Analysis Chart
Orbit Inclination Analysis Chart
Orbit Comprehensive Analysis Chart
View Comprehensive Chart
Conjunction Data List
Event ID Objects TCA Miss Dist (km) Collision Risk Probability Collision Risk Index (CRI) Action
CDM_260914-234205-733706-215421
2026-09-14T
23:42:15+0000
0.863 km
远距离
2.80141E-5 中风险 0.64
CDM_260914-220805-733706-215421
2026-09-14T
22:08:06+0000
1.014 km
极远距离
1.621794E-5 中风险 0.59
CDM_260911-013205-733706-215424
2026-09-11T
01:32:52+0000
2.166 km
极远距离
1.570861E-6 低风险 0.39
CDM_260915-011605-733706-215421
2026-09-15T
01:16:25+0000
2.560 km
极远距离
1.143334E-6 低风险 0.36
CDM_260914-203305-733706-215421
2026-09-14T
20:33:57+0000
2.652 km
极远距离
1.082316E-6 低风险 0.36
Miss Distance Evolution Trend with All Objects
Collision Probability Evolution Trend with All Objects